RH
14 14 13 10 9 9 10 10 9 9 9 8 8 9 9 10 10 11 11 11 11 11 11 11 10 10 10 10 10 10 10 10 10 10 10 10 13 13 13 13 14 14 13 12 10 11 12 13 13 12 12 11 11 12 12 13 13 13 15 16 15 16 16 15 19 21 24 24 22 22 22 23 23 23 24 25 25 25 23 22 21 22 22 20 21 24 23 22
14 13 13 11 10 9 10 9 10 9 9 9 8 9 9 9 10 10 11 11 11 11 11 10 10 10 10 10 10 10 10 10 9 9 9 12 14 14 13 13 13 12 12 12 11 11 12 12 12 12 11 11 10 11 12 12 13 13 13 15 14 14 14 17 22 23 23 23 22 22 22 22 22 22 23 25 25 23 22 22 20 23 24 22 23 26 25 22
15 13 13 13 10 9 10 10 10 10 9 10 9 9 9 9 10 10 11 11 10 10 10 9 9 9 10 10 10 10 9 9 10 8 9 12 14 14 14 13 13 12 11 11 10 10 12 11 12 12 11 11 11 11 12 12 12 13 12 14 13 12 14 19 23 23 24 24 22 22 22 22 23 21 22 24 24 22 23 21 20 22 24 23 25 25 24 21
16 14 13 14 12 9 10 10 10 11 10 11 10 9 9 9 10 10 10 10 9 10 9 9 9 9 10 9 9 9 8 12 15 13 11 13 14 14 14 13 12 11 10 9 9 10 10 11 12 13 11 11 11 12 12 12 13 13 13 12 11 12 15 20 25 23 23 24 22 22 21 21 23 22 20 21 22 22 21 19 18 20 20 22 22 21 21 21
16 15 14 14 13 10 10 10 11 11 11 11 10 10 10 9 10 9 10 9 9 9 9 9 8 9 9 8 9 8 13 21 19 14 12 11 12 13 12 10 9 8 7 8 9 10 10 10 12 12 11 11 12 12 13 13 14 15 14 12 12 13 15 19 22 21 22 24 23 23 23 20 20 20 18 19 21 22 19 18 18 18 20 21 19 18 20 21
17 15 14 14 14 12 10 10 11 12 12 11 10 10 9 9 9 9 9 9 9 9 9 8 8 9 8 9 10 11 19 24 16 12 11 10 10 9 8 8 7 6 6 7 9 10 10 10 11 11 10 10 12 12 14 14 15 17 15 12 13 14 14 16 17 19 22 23 24 23 22 19 18 19 19 18 19 19 18 19 19 20 21 21 18 19 21 21
17 16 15 14 14 14 12 10 11 13 12 11 11 10 10 9 9 9 8 9 9 8 8 9 9 10 9 9 12 15 21 19 14 13 11 9 9 7 7 7 7 6 6 8 9 10 10 11 12 11 11 13 13 14 15 15 15 16 14 13 14 14 15 15 14 18 20 21 23 21 18 18 19 21 20 18 18 18 18 20 21 21 22 20 18 20 22 22
16 17 16 14 15 15 14 12 12 13 13 13 11 10 10 10 10 9 9 9 9 9 10 10 10 9 9 10 14 20 22 17 15 13 10 9 8 7 8 8 8 7 6 8 10 10 11 11 12 12 14 15 16 16 16 15 15 14 13 14 14 15 16 15 13 16 17 18 21 20 19 19 19 19 19 18 17 19 19 21 23 22 22 21 20 22 24 24
17 17 17 16 15 15 16 15 16 15 14 13 12 11 10 10 10 10 11 11 11 11 10 10 10 9 10 11 15 21 19 15 14 13 11 9 8 9 9 9 8 8 9 11 10 11 13 12 13 15 16 17 16 16 15 16 16 14 12 14 14 16 16 14 14 15 15 18 19 16 17 19 18 17 18 17 16 18 19 20 23 24 24 25 24 23 24 24
17 16 17 16 17 18 20 21 20 19 17 14 13 12 10 10 10 10 11 11 11 11 11 11 10 10 12 14 20 25 18 13 14 13 11 10 10 11 11 10 10 11 12 12 12 12 14 13 14 16 16 16 15 15 15 15 17 15 13 14 15 16 16 15 15 14 13 16 17 14 14 16 16 17 17 16 14 15 18 19 20 21 23 24 23 23 22 22
16 16 17 20 22 25 25 25 23 22 20 18 15 13 11 10 10 10 11 11 11 11 11 11 11 12 15 18 26 28 18 13 15 14 12 11 12 13 12 12 11 14 14 13 14 15 14 14 14 16 16 16 14 15 15 15 17 17 14 14 14 14 14 15 15 14 13 13 14 13 13 13 14 16 16 15 15 14 18 20 18 18 19 20 20 20 20 20
17 19 22 24 26 26 26 25 24 23 21 19 18 15 13 11 10 10 11 11 12 12 12 12 12 15 17 20 25 25 17 14 14 13 13 12 13 14 13 13 12 14 13 14 16 15 15 15 14 16 16 17 16 15 15 14 16 16 14 15 15 15 14 14 14 14 13 12 12 12 12 12 12 13 12 12 15 16 19 21 18 17 17 18 18 18 19 18
19 23 26 25 24 24 25 24 24 23 21 18 17 16 14 12 11 10 11 13 12 12 12 12 14 16 18 21 21 20 16 15 14 13 13 13 14 14 13 13 13 13 13 14 16 16 17 17 15 16 16 17 16 16 16 15 15 16 15 16 17 17 16 15 13 14 14 13 13 11 14 16 12 11 11 11 13 15 17 18 17 16 17 18 18 18 18 17
19 23 24 23 23 23 23 23 23 23 21 19 17 15 14 13 13 13 12 13 13 14 13 14 16 16 17 19 17 17 16 15 14 13 13 13 13 13 13 13 13 14 14 14 16 17 18 17 16 16 15 15 15 15 15 16 16 16 15 16 16 17 16 14 14 15 16 16 15 13 16 18 14 11 11 11 13 14 15 14 16 18 18 19 19 18 18 18
18 21 21 22 23 23 22 22 22 22 22 21 19 17 15 14 14 14 15 14 13 14 14 14 15 15 18 21 18 17 15 14 14 13 13 14 13 13 13 14 14 14 14 15 15 16 16 16 15 15 16 16 15 15 16 16 16 16 16 16 16 15 15 14 15 16 16 16 15 15 18 18 15 13 12 13 14 15 15 14 16 19 20 21 21 20 20 20
18 19 19 20 21 21 22 22 22 21 21 20 21 20 19 18 17 15 16 15 14 14 14 16 17 17 21 24 21 17 17 15 14 13 13 13 13 13 14 14 14 14 14 14 14 14 14 14 13 14 15 16 16 16 16 16 17 16 16 18 18 16 15 16 17 16 15 16 15 16 19 19 17 13 13 13 14 14 14 15 15 19 21 21 21 21 22 23
18 19 19 18 18 19 19 19 21 22 22 21 21 21 20 20 20 19 17 16 17 16 14 17 20 23 23 22 20 18 19 17 14 13 13 13 13 14 15 15 15 14 15 15 14 14 14 14 13 14 14 15 17 17 16 17 18 19 18 18 19 17 16 17 17 17 18 18 18 18 19 22 20 15 15 15 14 15 15 15 15 18 22 21 21 22 22 23
16 18 19 18 17 17 17 17 17 19 22 24 23 23 22 20 20 21 19 18 17 17 20 21 22 27 28 25 23 22 21 18 15 14 13 12 13 13 14 15 15 16 16 15 15 15 16 15 14 16 16 17 18 18 18 19 20 25 25 22 22 21 20 19 18 22 24 23 23 22 22 24 22 18 17 16 16 18 18 17 16 18 22 22 22 22 23 24
15 16 18 18 17 17 17 17 16 16 19 23 25 26 27 26 27 28 24 19 19 26 33 30 27 28 28 26 24 23 22 19 17 15 13 13 13 13 13 14 16 16 16 17 18 17 18 18 17 19 21 21 22 22 22 22 23 28 30 29 28 26 28 29 27 29 30 29 29 25 23 25 25 22 20 18 18 19 20 19 18 20 22 23 22 22 24 24
14 15 16 17 18 18 18 17 16 16 17 21 24 27 31 30 33 37 32 23 21 30 36 31 27 25 24 26 25 24 24 21 18 17 16 15 14 15 15 15 17 17 18 21 24 22 20 21 22 22 24 26 30 32 31 29 29 30 31 33 31 29 35 37 34 35 37 35 34 30 27 26 26 27 25 22 21 22 22 22 21 22 23 24 23 22 24 25
14 14 15 15 16 17 18 16 16 16 17 20 22 27 31 28 30 36 34 27 24 27 29 28 28 25 23 27 26 25 24 22 20 19 18 18 17 17 17 17 18 20 21 22 26 28 26 28 30 30 30 33 37 38 38 36 33 33 32 32 33 33 38 39 34 37 41 40 40 38 31 26 25 27 28 27 27 27 26 23 23 23 24 25 25 24 24 25
13 12 12 13 14 13 14 13 13 15 19 21 21 26 28 23 24 28 27 27 25 23 24 27 28 25 23 25 25 24 24 25 24 22 22 22 21 19 19 20 20 23 25 24 28 32 32 33 35 35 36 38 40 40 41 40 37 36 36 34 35 35 38 41 39 38 40 41 44 41 32 28 27 26 26 26 26 28 29 25 23 22 24 24 25 26 25 25
12 11 10 10 11 10 11 11 12 16 20 24 24 24 24 19 20 23 23 26 29 28 27 26 26 25 24 24 23 23 24 27 27 24 24 25 26 22 20 21 23 25 26 29 32 35 37 37 37 38 37 37 40 41 41 39 39 40 39 36 36 35 37 43 47 44 43 42 41 38 33 31 31 28 26 26 23 22 24 26 24 22 24 24 25 26 26 25
10 10 9 8 8 10 12 13 16 20 23 27 27 22 20 20 20 21 21 25 30 33 31 29 26 26 28 25 22 23 24 26 28 25 23 25 27 24 22 23 24 26 27 30 33 34 36 38 39 41 40 37 40 42 39 37 40 42 40 38 37 36 35 37 44 47 46 45 40 34 35 38 34 29 27 24 21 18 18 24 25 23 23 24 25 27 26 26
8 9 8 7 8 10 14 16 18 21 23 28 30 22 18 20 21 21 26 33 38 37 36 34 30 29 31 29 26 25 23 24 26 24 21 23 24 23 23 24 24 27 27 29 32 32 32 35 37 39 39 38 39 41 40 39 40 41 41 41 40 38 36 34 38 42 42 44 40 35 40 46 37 28 26 23 22 22 20 24 26 24 23 24 26 26 24 25
8 8 8 7 7 9 13 15 17 20 23 26 26 19 16 19 20 21 32 46 50 45 40 39 37 35 36 36 31 27 24 26 29 27 23 23 22 22 22 21 22 24 25 27 30 29 30 33 35 35 36 37 37 37 39 40 41 41 41 40 40 39 38 36 37 39 41 40 39 35 39 46 39 26 24 23 24 24 24 26 26 26 24 24 25 22 19 20
8 8 8 8 7 8 9 9 13 18 19 20 17 14 15 16 17 23 39 56 56 48 44 42 41 38 37 35 30 30 32 33 32 30 28 24 20 20 22 22 21 20 21 24 26 28 32 33 33 34 34 35 36 35 36 37 37 38 35 33 35 36 36 38 37 36 38 35 35 36 34 38 35 23 22 26 26 25 25 27 27 27 25 21 21 20 17 17
8 8 8 9 9 10 9 8 11 13 13 14 11 12 14 14 17 25 42 58 54 45 44 44 41 38 36 33 30 31 35 34 33 33 30 25 21 20 21 22 22 22 22 23 25 30 32 34 36 35 32 32 33 32 32 32 31 31 31 31 32 33 34 37 36 34 35 33 36 37 33 37 35 24 25 30 29 28 28 27 27 27 28 25 23 22 18 16
9 9 10 10 13 16 13 12 14 13 14 13 10 11 13 16 24 32 47 60 52 44 44 42 40 37 35 33 29 29 30 30 31 32 30 27 24 22 21 23 23 24 25 25 27 30 30 32 36 35 32 32 30 29 28 29 30 30 32 33 32 32 32 35 37 34 32 32 34 31 29 35 34 26 29 33 35 38 37 35 34 34 34 32 29 26 20 16
10 10 11 12 15 18 18 18 18 17 17 14 10 11 14 23 34 44 58 61 48 42 43 40 36 33 34 33 31 31 30 29 29 30 30 30 27 22 21 23 23 25 27 29 29 29 26 28 31 31 31 29 24 24 27 28 29 31 32 31 33 32 30 31 33 30 30 32 30 25 26 35 37 32 31 34 39 42 40 40 42 42 40 36 33 29 22 17
10 11 11 11 13 17 19 20 18 16 16 13 9 11 20 34 43 49 56 49 39 39 39 39 37 34 34 35 34 34 32 30 30 30 30 30 29 27 26 27 24 23 27 30 29 27 25 24 27 28 26 25 21 21 25 26 27 30 31 30 32 32 28 28 29 28 34 38 33 29 29 36 42 37 34 36 41 44 43 43 45 46 44 37 32 29 23 21
10 11 11 11 11 14 15 14 13 12 12 9 9 15 28 42 48 49 46 37 37 42 39 37 36 32 33 32 31 34 34 33 33 35 34 32 32 32 31 32 30 27 28 31 31 31 29 28 28 30 28 29 30 25 23 23 26 29 30 29 31 31 29 33 36 37 41 40 37 38 39 41 44 40 37 40 42 44 45 45 45 45 44 39 34 31 28 27
9 10 10 10 11 12 11 11 11 11 11 11 14 23 35 46 47 41 37 34 38 40 35 32 26 24 28 26 23 26 30 32 33 37 41 38 37 35 29 30 32 31 32 37 38 37 37 36 35 36 35 33 34 32 28 25 27 30 31 35 38 37 37 41 43 44 48 48 46 47 48 47 46 42 39 42 44 44 44 43 42 41 41 41 38 36 34 33
10 12 15 15 14 15 12 11 13 14 14 15 20 30 41 47 45 38 35 35 35 32 29 27 23 20 22 21 20 20 23 30 33 36 41 40 41 40 33 32 32 31 33 39 39 36 40 43 40 40 41 38 36 38 38 33 31 34 35 38 42 43 45 46 47 49 53 55 51 49 50 49 48 48 44 42 45 45 42 43 42 41 41 41 42 40 38 36
15 17 19 19 19 18 14 12 16 16 17 17 22 32 41 46 42 37 34 31 29 27 24 22 20 18 18 18 21 23 23 27 31 35 38 38 40 40 35 34 31 31 37 41 38 35 38 43 42 41 44 43 39 39 40 38 39 42 40 39 42 44 44 44 46 49 52 55 51 46 48 46 44 46 42 39 42 41 40 41 42 43 41 40 42 43 41 39
18 19 19 20 21 19 15 16 18 16 16 18 22 31 37 39 38 35 33 30 27 24 20 18 18 19 20 21 26 31 30 29 30 33 36 36 36 34 33 35 33 34 41 42 39 36 36 40 39 39 40 39 40 42 40 38 44 49 46 44 44 44 45 48 52 51 50 55 52 43 45 45 42 41 38 37 39 36 37 39 39 42 42 39 39 41 41 41
17 20 19 21 24 22 18 17 15 15 17 20 27 33 33 35 37 35 34 32 30 23 16 16 18 18 21 24 30 37 37 36 37 38 40 39 37 34 34 38 39 42 46 45 43 40 39 40 38 35 37 38 37 41 43 40 42 46 45 44 44 44 46 50 55 54 53 56 48 39 43 44 42 42 37 35 38 38 40 42 41 43 45 44 43 43 42 39
17 20 19 23 27 25 19 15 13 16 20 23 30 36 36 38 40 37 34 33 31 24 17 18 19 18 21 25 29 34 37 41 41 37 38 39 39 39 38 39 40 44 46 44 45 44 41 42 40 34 36 37 31 33 41 41 36 34 35 37 41 45 49 49 50 52 54 53 45 39 40 37 34 35 32 33 39 42 45 47 48 48 49 50 49 48 45 41
19 21 22 26 29 26 19 14 12 17 25 31 36 39 38 38 36 33 32 29 27 23 18 18 18 19 21 23 24 26 30 37 38 37 36 35 38 41 41 40 41 45 46 44 46 47 43 43 44 37 32 32 28 28 35 36 32 33 38 38 38 41 44 45 46 48 50 51 47 44 42 36 32 30 31 38 43 43 44 48 51 51 51 50 49 49 50 48
18 23 27 29 29 24 17 12 14 22 30 36 37 35 33 33 33 34 32 26 23 23 20 17 17 18 20 19 20 20 21 25 28 31 34 34 36 38 36 35 38 41 42 41 41 42 40 41 44 39 32 32 32 29 29 31 31 37 44 46 44 42 41 43 44 44 50 58 59 58 54 42 35 34 39 47 48 44 47 50 53 53 50 50 48 49 52 52
18 25 31 29 25 20 14 14 19 26 31 35 36 34 33 32 32 32 29 23 20 20 19 18 18 19 20 20 20 20 20 20 21 23 26 29 32 35 34 33 34 35 36 39 40 42 43 42 41 38 36 36 34 29 27 29 32 35 39 40 41 42 41 46 48 46 55 65 65 68 64 43 33 42 49 50 48 47 50 52 55 54 51 51 51 50 52 54
21 27 28 25 21 16 14 18 22 25 32 38 38 36 35 33 29 25 22 20 19 18 20 21 20 20 21 22 22 22 22 23 24 24 26 26 27 31 33 33 34 34 35 40 43 42 42 41 37 36 36 33 30 26 25 27 28 29 31 31 33 38 42 50 54 48 54 63 59 64 63 40 33 49 51 44 45 48 50 51 54 53 48 47 47 46 48 51
20 21 22 22 19 15 16 22 25 25 28 32 31 29 30 28 25 21 20 20 19 19 21 22 22 22 22 22 22 23 23 24 25 26 26 26 25 28 31 32 33 33 34 40 42 38 38 39 38 38 35 30 27 25 22 23 24 26 29 30 31 35 38 46 51 46 49 54 50 56 60 41 32 43 44 38 41 44 45 46 47 47 44 43 43 43 45 49
18 18 22 24 19 15 17 22 26 24 22 23 24 24 23 21 19 18 20 22 21 21 22 21 21 22 21 21 21 22 25 27 27 25 26 26 26 27 29 30 31 31 34 40 41 37 39 42 42 43 43 39 34 29 28 31 31 30 30 30 31 33 35 40 45 45 49 48 44 55 61 40 27 32 36 37 38 40 43 46 46 46 44 42 41 41 44 45
19 18 21 23 20 18 19 21 24 25 25 23 22 21 19 17 16 17 21 23 21 21 22 21 19 19 20 22 23 24 26 28 29 27 27 27 26 25 28 31 33 33 35 37 35 34 39 41 39 43 49 49 42 35 35 38 36 32 31 31 30 31 33 37 43 48 51 48 45 53 55 39 27 30 33 35 37 39 43 46 48 49 46 42 40 40 41 42
21 20 21 20 18 18 21 23 24 27 28 27 24 21 18 17 16 17 20 23 22 22 23 23 22 22 25 27 30 31 29 29 32 32 31 32 30 27 28 32 35 36 37 37 35 36 40 38 36 40 44 45 41 36 34 33 31 30 30 30 29 31 34 38 44 47 47 46 44 43 43 38 31 29 29 29 32 36 38 37 36 36 36 34 33 32 32 32
21 23 23 20 20 20 22 23 24 25 27 28 25 22 18 18 20 22 24 24 24 24 27 28 28 30 35 36 36 36 35 34 34 34 35 36 35 32 30 33 38 43 45 43 40 40 42 40 40 41 38 35 34 32 30 29 27 26 25 24 24 30 35 37 40 42 41 43 43 37 36 37 31 23 23 25 30 36 34 28 25 23 23 21 19 19 18 17
21 22 21 21 23 24 23 21 20 20 21 24 24 23 23 24 26 28 28 27 30 34 40 42 40 39 41 41 42 42 41 39 39 41 42 41 39 37 36 35 39 44 46 45 44 45 46 47 45 40 36 34 34 33 33 33 30 26 25 24 24 29 34 33 34 35 35 39 39 33 33 35 28 21 21 24 28 31 28 24 22 20 18 17 15 17 18 18
23 25 24 24 24 25 24 23 22 24 28 31 33 32 32 34 35 35 35 36 40 44 48 51 51 47 43 43 46 49 48 47 50 52 50 46 44 43 42 40 39 41 41 42 45 46 48 50 48 42 37 34 36 38 38 36 34 31 28 28 30 34 34 31 31 31 31 33 33 29 30 30 26 22 22 21 22 23 21 21 20 18 19 21 22 23 23 22
27 31 31 31 31 30 28 28 28 34 40 41 41 40 39 42 45 44 42 44 45 45 45 48 50 47 42 41 44 48 52 54 56 55 51 49 48 46 46 44 42 41 41 42 45 46 48 50 49 47 44 39 39 41 39 38 38 34 30 30 35 37 33 31 31 29 29 30 28 27 28 26 20 19 19 18 18 20 21 21 21 23 25 26 26 25 25 24
29 33 34 36 38 36 34 33 33 38 44 45 45 47 46 49 50 46 44 45 45 45 45 45 46 45 42 42 43 45 49 52 52 49 46 46 47 47 47 46 44 44 44 43 44 45 48 50 47 50 51 46 46 48 43 40 39 33 31 33 34 34 33 31 31 29 28 28 27 28 29 24 19 19 21 21 21 23 25 26 28 29 30 31 31 30 29 28
30 31 34 38 43 42 39 39 40 45 51 51 49 50 49 48 48 47 48 49 47 47 47 46 46 47 46 47 47 45 44 45 45 44 43 43 43 43 44 44 46 48 47 45 44 43 45 47 48 53 53 47 50 54 48 46 44 36 34 35 33 33 34 32 32 31 29 29 30 31 29 25 23 26 29 30 29 30 31 33 33 32 32 33 35 34 33 32